�ϑ��_��,����,�C��[��],�C�� �i�����,���x[%RH],���x �i�����,���n�C��[hPa],���n�C�� �i�����,�C�ʋC��[hPa],�C�ʋC�� �i�����,����[m/s],���� �i�����,����,���� �i�����,�ő�u�ԕ���[m/s],�ő�u�ԕ��� �i�����,�ő�u�ԕ���������,�ő�u�ԕ��������� �i�����,����[W/�u],���� �i�����,���J,���J �i�����,1���ԉJ��[mm/h],1���ԉJ�� �i�����,�ϐ��[cm],�ϐ�� �i�����,�~���[cm/h],�~��� �i�����,����[m],���� �i�����,���ʕω�,���ʕω� �i�����
�k�C���X�y�[�X�|�[�g(�����),2023/08/01 01:00:00,19.9,0,100,0,1006.5,0,1009.3,0,1.1,0,�k��,0,2.0,0,�k��,0,0,0,�Ȃ�,0,0.0,0,,,,,,,,
�k�C���X�y�[�X�|�[�g(�����),2023/08/01 02:00:00,19.3,0,100,0,1006.9,0,1009.7,0,1.5,0,���쐼,0,2.5,0,���k��,0,0,0,�Ȃ�,0,0.0,0,,,,,,,,
�k�C���X�y�[�X�|�[�g(�����),2023/08/01 03:00:00,18.9,0,100,0,1007.1,0,1009.9,0,1.2,0,�k��,0,2.9,0,�k�k��,0,0,0,�Ȃ�,0,0.0,0,,,,,,,,
�k�C���X�y�[�X�|�[�g(�����),2023/08/01 04:00:00,18.4,0,100,0,1007.9,0,1010.7,0,1.2,0,�쐼,0,1.8,0,�쐼,0,0,0,�Ȃ�,0,0.0,0,,,,,,,,
�k�C���X�y�[�X�|�[�g(�����),2023/08/01 05:00:00,18.9,0,100,0,1008.3,0,1011.1,0,1.8,0,���k��,0,2.6,0,���k��,0,8,0,�Ȃ�,0,0.0,0,,,,,,,,
�k�C���X�y�[�X�|�[�g(�����),2023/08/01 06:00:00,20.7,0,99,0,1009.0,0,1011.8,0,2.3,0,��,0,3.0,0,��,0,58,0,����,0,0.0,0,,,,,,,,
�k�C���X�y�[�X�|�[�g(�����),2023/08/01 07:00:00,22.8,0,86,0,1009.0,0,1011.8,0,2.1,0,���k��,0,3.1,0,��,0,175,0,�Ȃ�,0,0.0,0,,,,,,,,
�k�C���X�y�[�X�|�[�g(�����),2023/08/01 08:00:00,25.3,0,74,0,1008.6,0,1011.3,0,0.8,0,�쐼,0,2.3,0,���k��,0,379,0,�Ȃ�,0,0.0,0,,,,,,,,
�k�C���X�y�[�X�|�[�g(�����),2023/08/01 09:00:00,25.6,0,67,0,1008.4,0,1011.1,0,2.3,0,��쓌,0,3.6,0,��쓌,0,587,0,�Ȃ�,0,0.0,0,,,,,,,,
�k�C���X�y�[�X�|�[�g(�����),2023/08/01 10:00:00,23.9,0,75,0,1008.4,0,1011.2,0,3.5,0,���쓌,0,4.6,0,���쓌,0,786,0,�Ȃ�,0,0.0,0,,,,,,,,
�k�C���X�y�[�X�|�[�g(�����),2023/08/01 11:00:00,23.7,0,77,0,1008.1,0,1010.9,0,3.7,0,��,0,5.4,0,��,0,936,0,�Ȃ�,0,0.0,0,,,,,,,,
�k�C���X�y�[�X�|�[�g(�����),2023/08/01 12:00:00,22.5,0,84,0,1007.5,0,1010.3,0,4.3,0,��,0,6.1,0,��,0,1010,0,�Ȃ�,0,0.0,0,,,,,,,,
�k�C���X�y�[�X�|�[�g(�����),2023/08/01 13:00:00,22.0,0,88,0,1007.2,0,1010.0,0,3.8,0,��,0,6.1,0,���쓌,0,968,0,�Ȃ�,0,0.0,0,,,,,,,,
�k�C���X�y�[�X�|�[�g(�����),2023/08/01 14:00:00,21.4,0,87,0,1006.5,0,1009.3,0,4.4,0,���k��,0,6.3,0,��,0,769,0,�Ȃ�,0,0.0,0,,,,,,,,
�k�C���X�y�[�X�|�[�g(�����),2023/08/01 15:00:00,20.6,0,92,0,1006.0,0,1008.8,0,3.6,0,���k��,0,6.7,0,��,0,478,0,�Ȃ�,0,0.0,0,,,,,,,,
�k�C���X�y�[�X�|�[�g(�����),2023/08/01 16:00:00,21.7,0,94,0,1005.8,0,1008.6,0,2.5,0,��,0,5.3,0,��,0,380,0,�Ȃ�,0,0.0,0,,,,,,,,
�k�C���X�y�[�X�|�[�g(�����),2023/08/01 17:00:00,21.0,0,94,0,1005.5,0,1008.3,0,2.7,0,��,0,4.9,0,��,0,290,0,�Ȃ�,0,0.0,0,,,,,,,,
�k�C���X�y�[�X�|�[�g(�����),2023/08/01 18:00:00,19.8,0,100,0,1005.8,0,1008.6,0,1.9,0,���k��,0,4.2,0,���k��,0,104,0,�Ȃ�,0,0.0,0,,,,,,,,
�k�C���X�y�[�X�|�[�g(�����),2023/08/01 19:00:00,19.0,0,100,0,1005.8,0,1008.6,0,1.5,0,�k��,0,4.4,0,���k��,0,13,0,�Ȃ�,0,0.0,0,,,,,,,,
�k�C���X�y�[�X�|�[�g(�����),2023/08/01 20:00:00,18.5,0,100,0,1006.5,0,1009.3,0,2.1,0,���k��,0,3.5,0,���k��,0,0,0,�Ȃ�,0,0.0,0,,,,,,,,
�k�C���X�y�[�X�|�[�g(�����),2023/08/01 21:00:00,18.4,0,100,0,1006.4,0,1009.2,0,0.7,0,��,0,3.9,0,��,0,0,0,�Ȃ�,0,0.0,0,,,,,,,,
�k�C���X�y�[�X�|�[�g(�����),2023/08/01 22:00:00,18.1,0,100,0,1005.9,0,1008.7,0,1.3,0,���k��,0,3.2,0,��,0,0,0,�Ȃ�,0,0.0,0,,,,,,,,
�k�C���X�y�[�X�|�[�g(�����),2023/08/01 23:00:00,17.8,0,100,0,1005.8,0,1008.6,0,0.5,0,��,0,2.0,0,��,0,0,0,�Ȃ�,0,0.0,0,,,,,,,,
�k�C���X�y�[�X�|�[�g(�����),2023/08/02 00:00:00,17.7,0,100,0,1005.5,0,1008.3,0,1.5,0,�k�k��,0,2.7,0,�k�k��,0,0,0,�Ȃ�,0,0.0,0,,,,,,,,
�k�C���X�y�[�X�|�[�g(�����),2023/08/02 01:00:00,17.5,0,100,0,1005.0,0,1007.8,0,0.5,0,��,0,2.4,0,�k��,0,0,0,�Ȃ�,0,0.0,0,,,,,,,,
�k�C���X�y�[�X�|�[�g(�����),2023/08/02 02:00:00,16.6,0,100,0,1004.5,0,1007.3,0,0.6,0,���쐼,0,2.7,0,��,0,0,0,�Ȃ�,0,0.0,0,,,,,,,,
�k�C���X�y�[�X�|�[�g(�����),2023/08/02 03:00:00,16.7,0,100,0,1004.2,0,1007.0,0,1.0,0,�쐼,0,1.8,0,��쐼,0,0,0,�Ȃ�,0,0.0,0,,,,,,,,
�k�C���X�y�[�X�|�[�g(�����),2023/08/02 04:00:00,16.8,0,100,0,1004.1,0,1006.9,0,1.2,0,���k��,0,2.4,0,�k�k��,0,0,0,�Ȃ�,0,0.0,0,,,,,,,,
�k�C���X�y�[�X�|�[�g(�����),2023/08/02 05:00:00,16.5,0,100,0,1004.4,0,1007.2,0,0.5,0,��쓌,0,3.9,0,��,0,8,0,�Ȃ�,0,0.0,0,,,,,,,,
�k�C���X�y�[�X�|�[�g(�����),2023/08/02 06:00:00,18.6,0,100,0,1004.5,0,1007.3,0,0.7,0,��,0,3.2,0,��,0,62,0,�Ȃ�,0,0.0,0,,,,,,,,
�k�C���X�y�[�X�|�[�g(�����),2023/08/02 07:00:00,21.5,0,100,0,1004.9,0,1007.7,0,1.3,0,��쓌,0,2.6,0,�쓌,0,198,0,�Ȃ�,0,0.0,0,,,,,,,,
�k�C���X�y�[�X�|�[�g(�����),2023/08/02 08:00:00,23.3,0,73,0,1004.8,0,1007.6,0,1.7,0,���쓌,0,3.9,0,���쓌,0,393,0,�Ȃ�,0,0.0,0,,,,,,,,
�k�C���X�y�[�X�|�[�g(�����),2023/08/02 09:00:00,24.8,0,71,0,1004.5,0,1007.2,0,1.8,0,�쓌,0,3.9,0,�쓌,0,590,0,�Ȃ�,0,0.0,0,,,,,,,,
�k�C���X�y�[�X�|�[�g(�����),2023/08/02 10:00:00,25.4,0,66,0,1004.4,0,1007.1,0,2.6,0,�쓌,0,4.2,0,�쓌,0,786,0,�Ȃ�,0,0.0,0,,,,,,,,
�k�C���X�y�[�X�|�[�g(�����),2023/08/02 11:00:00,25.4,0,71,0,1003.9,0,1006.6,0,2.1,0,���쓌,0,4.5,0,�쓌,0,915,0,�Ȃ�,0,0.0,0,,,,,,,,
�k�C���X�y�[�X�|�[�g(�����),2023/08/02 12:00:00,27.3,0,65,0,1003.5,0,1006.2,0,2.0,0,���쓌,0,3.5,0,��,0,919,0,�Ȃ�,0,0.0,0,,,,,,,,
�k�C���X�y�[�X�|�[�g(�����),2023/08/02 13:00:00,26.4,0,68,0,1003.1,0,1005.8,0,3.4,0,�쓌,0,5.6,0,��쓌,0,762,0,�Ȃ�,0,0.0,0,,,,,,,,
�k�C���X�y�[�X�|�[�g(�����),2023/08/02 14:00:00,31.9,0,50,0,1002.9,0,1005.6,0,4.8,0,���쐼,0,6.9,0,���쐼,0,652,0,�Ȃ�,0,0.0,0,,,,,,,,
�k�C���X�y�[�X�|�[�g(�����),2023/08/02 15:00:00,32.4,0,43,0,1002.8,0,1005.5,0,8.0,0,���쐼,0,10.5,0,��,0,738,0,�Ȃ�,0,0.0,0,,,,,,,,
�k�C���X�y�[�X�|�[�g(�����),2023/08/02 16:00:00,31.9,0,46,0,1003.0,0,1005.7,0,5.7,0,��,0,10.4,0,���쐼,0,512,0,�Ȃ�,0,0.0,0,,,,,,,,
�k�C���X�y�[�X�|�[�g(�����),2023/08/02 17:00:00,31.0,0,48,0,1003.3,0,1006.0,0,4.1,0,���쐼,0,8.5,0,��,0,299,0,�Ȃ�,0,0.0,0,,,,,,,,
�k�C���X�y�[�X�|�[�g(�����),2023/08/02 18:00:00,29.1,0,56,0,1003.6,0,1006.3,0,1.8,0,�쐼,0,6.3,0,��,0,125,0,�Ȃ�,0,0.0,0,,,,,,,,
�k�C���X�y�[�X�|�[�g(�����),2023/08/02 19:00:00,26.0,0,68,0,1004.5,0,1007.2,0,1.3,0,�쐼,0,3.8,0,��쓌,0,12,0,�Ȃ�,0,0.0,0,,,,,,,,
�k�C���X�y�[�X�|�[�g(�����),2023/08/02 20:00:00,25.8,0,71,0,1005.2,0,1007.9,0,1.3,0,��쐼,0,1.9,0,���쐼,0,0,0,�Ȃ�,0,0.0,0,,,,,,,,
�k�C���X�y�[�X�|�[�g(�����),2023/08/02 21:00:00,25.3,0,73,0,1004.7,0,1007.4,0,2.7,0,��쐼,0,4.7,0,�쐼,0,0,0,�Ȃ�,0,0.0,0,,,,,,,,
�k�C���X�y�[�X�|�[�g(�����),2023/08/02 22:00:00,25.6,0,73,0,1004.6,0,1007.3,0,3.0,0,��쐼,0,5.7,0,�쐼,0,0,0,�Ȃ�,0,0.0,0,,,,,,,,
�k�C���X�y�[�X�|�[�g(�����),2023/08/02 23:00:00,24.4,0,75,0,1005.1,0,1007.8,0,2.2,0,�쐼,0,5.0,0,��쐼,0,0,0,�Ȃ�,0,0.0,0,,,,,,,,
�k�C���X�y�[�X�|�[�g(�����),2023/08/03 00:00:00,25.0,0,74,0,1004.5,0,1007.2,0,3.2,0,��쐼,0,4.8,0,��쐼,0,0,0,�Ȃ�,0,0.0,0,,,,,,,,
�k�C���X�y�[�X�|�[�g(�����),2023/08/03 01:00:00,24.9,0,73,0,1004.2,0,1006.9,0,3.3,0,��쐼,0,4.9,0,��쐼,0,0,0,�Ȃ�,0,0.0,0,,,,,,,,
�k�C���X�y�[�X�|�[�g(�����),2023/08/03 02:00:00,24.0,0,72,0,1004.2,0,1006.9,0,2.0,0,��,0,4.4,0,�쐼,0,0,0,�Ȃ�,0,0.0,0,,,,,,,,
�k�C���X�y�[�X�|�[�g(�����),2023/08/03 03:00:00,23.1,0,78,0,1004.5,0,1007.3,0,1.0,0,��쐼,0,2.7,0,�쐼,0,0,0,�Ȃ�,0,0.0,0,,,,,,,,
�k�C���X�y�[�X�|�[�g(�����),2023/08/03 04:00:00,21.9,0,81,0,1004.6,0,1007.4,0,0.7,0,��쓌,0,2.9,0,��쐼,0,0,0,�Ȃ�,0,0.0,0,,,,,,,,
�k�C���X�y�[�X�|�[�g(�����),2023/08/03 05:00:00,25.1,0,72,0,1004.8,0,1007.5,0,1.8,0,�k��,0,5.3,0,���쐼,0,13,0,�Ȃ�,0,0.0,0,,,,,,,,
�k�C���X�y�[�X�|�[�g(�����),2023/08/03 06:00:00,26.4,0,74,0,1004.8,0,1007.5,0,1.1,0,��,0,2.8,0,�쐼,0,106,0,�Ȃ�,0,0.0,0,,,,,,,,
�k�C���X�y�[�X�|�[�g(�����),2023/08/03 07:00:00,24.2,0,74,0,1004.7,0,1007.4,0,2.6,0,��쓌,0,5.1,0,��쓌,0,232,0,�Ȃ�,0,0.0,0,,,,,,,,
�k�C���X�y�[�X�|�[�g(�����),2023/08/03 08:00:00,24.0,0,72,0,1004.4,0,1007.1,0,3.6,0,��,0,6.0,0,��,0,352,0,�Ȃ�,0,0.0,0,,,,,,,,
�k�C���X�y�[�X�|�[�g(�����),2023/08/03 09:00:00,24.0,0,73,0,1004.4,0,1007.1,0,3.3,0,��,0,7.7,0,��쐼,0,449,0,�Ȃ�,0,0.0,0,,,,,,,,
�k�C���X�y�[�X�|�[�g(�����),2023/08/03 10:00:00,24.5,0,79,0,1004.4,0,1007.1,0,4.6,0,��쐼,0,8.4,0,��쐼,0,129,0,����,0,0.0,0,,,,,,,,
�k�C���X�y�[�X�|�[�g(�����),2023/08/03 11:00:00,24.5,0,80,0,1004.1,0,1006.8,0,3.0,0,��쐼,0,7.6,0,��쐼,0,185,0,�Ȃ�,0,0.0,0,,,,,,,,
�k�C���X�y�[�X�|�[�g(�����),2023/08/03 12:00:00,22.8,0,81,0,1004.0,0,1006.8,0,3.9,0,��,0,7.4,0,��,0,251,0,����,0,0.0,0,,,,,,,,
�k�C���X�y�[�X�|�[�g(�����),2023/08/03 13:00:00,23.0,0,79,0,1003.6,0,1006.4,0,2.6,0,��,0,6.5,0,��,0,167,0,�Ȃ�,0,0.0,0,,,,,,,,
�k�C���X�y�[�X�|�[�g(�����),2023/08/03 14:00:00,25.8,0,79,0,1003.4,0,1006.1,0,2.1,0,��,0,4.6,0,��쐼,0,156,0,�Ȃ�,0,0.0,0,,,,,,,,
�k�C���X�y�[�X�|�[�g(�����),2023/08/03 15:00:00,26.1,0,73,0,1003.2,0,1005.9,0,2.0,0,��,0,4.1,0,��쐼,0,114,0,�Ȃ�,0,0.0,0,,,,,,,,
�k�C���X�y�[�X�|�[�g(�����),2023/08/03 16:00:00,23.0,0,82,0,1003.1,0,1005.9,0,3.0,0,��,0,5.4,0,��쓌,0,73,0,�Ȃ�,0,0.0,0,,,,,,,,
�k�C���X�y�[�X�|�[�g(�����),2023/08/03 17:00:00,23.5,0,81,0,1002.9,0,1005.7,0,3.9,0,��쐼,0,7.2,0,��,0,165,0,�Ȃ�,0,0.0,0,,,,,,,,
�k�C���X�y�[�X�|�[�g(�����),2023/08/03 18:00:00,20.3,0,87,0,1002.8,0,1005.6,0,2.9,0,�쓌,0,5.8,0,��,0,60,0,����,0,0.0,0,,,,,,,,
�k�C���X�y�[�X�|�[�g(�����),2023/08/03 19:00:00,21.2,0,93,0,1003.0,0,1005.8,0,4.7,0,��,0,8.5,0,��쐼,0,5,0,����,0,0.0,0,,,,,,,,
�k�C���X�y�[�X�|�[�g(�����),2023/08/03 20:00:00,22.7,0,91,0,1003.2,0,1006.0,0,5.3,0,��쐼,0,9.7,0,��,0,0,0,�Ȃ�,0,0.0,0,,,,,,,,
�k�C���X�y�[�X�|�[�g(�����),2023/08/03 21:00:00,23.1,0,84,0,1003.2,0,1006.0,0,6.1,0,��,0,11.5,0,��쐼,0,0,0,�Ȃ�,0,0.0,0,,,,,,,,
�k�C���X�y�[�X�|�[�g(�����),2023/08/03 22:00:00,23.3,0,86,0,1002.9,0,1005.7,0,6.0,0,��쐼,0,10.3,0,��쐼,0,0,0,�Ȃ�,0,0.0,0,,,,,,,,
�k�C���X�y�[�X�|�[�g(�����),2023/08/03 23:00:00,22.6,0,82,0,1002.7,0,1005.5,0,5.5,0,��,0,9.9,0,��쐼,0,0,0,�Ȃ�,0,0.0,0,,,,,,,,
�k�C���X�y�[�X�|�[�g(�����),2023/08/04 00:00:00,21.3,0,84,0,1002.2,0,1005.0,0,3.7,0,��,0,9.1,0,��,0,0,0,����,0,0.0,0,,,,,,,,
�k�C���X�y�[�X�|�[�g(�����),2023/08/04 01:00:00,19.4,0,83,0,1001.9,0,1004.7,0,4.1,0,�쓌,0,7.6,0,��쐼,0,0,0,����,0,0.0,0,,,,,,,,
�k�C���X�y�[�X�|�[�g(�����),2023/08/04 02:00:00,24.4,0,82,0,1001.4,0,1004.1,0,3.8,0,��쐼,0,6.2,0,��쓌,0,0,0,�Ȃ�,0,0.0,0,,,,,,,,
�k�C���X�y�[�X�|�[�g(�����),2023/08/04 03:00:00,21.9,0,83,0,1001.1,0,1003.9,0,3.5,0,��,0,7.4,0,��,0,0,0,�Ȃ�,0,0.0,0,,,,,,,,
�k�C���X�y�[�X�|�[�g(�����),2023/08/04 04:00:00,20.0,0,90,0,1001.1,0,1003.9,0,0.9,0,��쐼,0,6.3,0,��,0,0,0,�Ȃ�,0,0.0,0,,,,,,,,
�k�C���X�y�[�X�|�[�g(�����),2023/08/04 05:00:00,20.8,0,91,0,1001.3,0,1004.1,0,1.1,0,��쐼,0,3.3,0,��,0,14,0,�Ȃ�,0,0.0,0,,,,,,,,
�k�C���X�y�[�X�|�[�g(�����),2023/08/04 06:00:00,22.5,0,88,0,1000.8,0,1003.6,0,1.1,0,��,0,3.3,0,��쐼,0,72,0,�Ȃ�,0,0.0,0,,,,,,,,
�k�C���X�y�[�X�|�[�g(�����),2023/08/04 07:00:00,28.1,0,69,0,1001.1,0,1003.8,0,1.2,0,��,0,4.4,0,��쐼,0,219,0,�Ȃ�,0,0.0,0,,,,,,,,
�k�C���X�y�[�X�|�[�g(�����),2023/08/04 08:00:00,29.4,0,59,0,1000.7,0,1003.4,0,4.4,0,��쐼,0,9.1,0,��쐼,0,410,0,�Ȃ�,0,0.0,0,,,,,,,,
�k�C���X�y�[�X�|�[�g(�����),2023/08/04 09:00:00,31.1,0,57,0,1000.9,0,1003.6,0,4.7,0,��쐼,0,8.4,0,�쐼,0,404,0,�Ȃ�,0,0.0,0,,,,,,,,
�k�C���X�y�[�X�|�[�g(�����),2023/08/04 10:00:00,31.8,0,54,0,1000.7,0,1003.4,0,5.4,0,�쐼,0,10.2,0,���쐼,0,788,0,�Ȃ�,0,0.0,0,,,,,,,,
�k�C���X�y�[�X�|�[�g(�����),2023/08/04 11:00:00,32.1,0,52,0,1000.6,0,1003.3,0,6.8,0,�쐼,0,10.2,0,���쐼,0,968,0,�Ȃ�,0,0.0,0,,,,,,,,
�k�C���X�y�[�X�|�[�g(�����),2023/08/04 12:00:00,32.9,0,53,0,1000.3,0,1003.0,0,7.0,0,���쐼,0,10.7,0,�쐼,0,1118,0,�Ȃ�,0,0.0,0,,,,,,,,
�k�C���X�y�[�X�|�[�g(�����),2023/08/04 13:00:00,31.4,0,55,0,1000.1,0,1002.8,0,6.4,0,���쐼,0,10.5,0,���쐼,0,845,0,�Ȃ�,0,0.0,0,,,,,,,,
�k�C���X�y�[�X�|�[�g(�����),2023/08/04 14:00:00,29.5,0,64,0,999.9,0,1002.6,0,4.3,0,��쐼,0,10.1,0,���쐼,0,289,0,�Ȃ�,0,0.0,0,,,,,,,,
�k�C���X�y�[�X�|�[�g(�����),2023/08/04 15:00:00,28.4,0,66,0,999.6,0,1002.3,0,4.6,0,��쐼,0,7.6,0,��쐼,0,180,0,�Ȃ�,0,0.0,0,,,,,,,,
�k�C���X�y�[�X�|�[�g(�����),2023/08/04 16:00:00,29.2,0,63,0,999.4,0,1002.1,0,4.4,0,��쐼,0,8.0,0,��쐼,0,352,0,�Ȃ�,0,0.0,0,,,,,,,,
�k�C���X�y�[�X�|�[�g(�����),2023/08/04 17:00:00,27.9,0,67,0,999.2,0,1001.9,0,3.8,0,��쐼,0,6.2,0,��쐼,0,51,0,�Ȃ�,0,0.0,0,,,,,,,,
�k�C���X�y�[�X�|�[�g(�����),2023/08/04 18:00:00,27.8,0,69,0,999.1,0,1001.8,0,4.1,0,��쐼,0,6.1,0,��쐼,0,31,0,�Ȃ�,0,0.0,0,,,,,,,,
�k�C���X�y�[�X�|�[�g(�����),2023/08/04 19:00:00,26.2,0,71,0,999.6,0,1002.3,0,3.7,0,��쐼,0,6.9,0,��,0,8,0,�Ȃ�,0,0.0,0,,,,,,,,
�k�C���X�y�[�X�|�[�g(�����),2023/08/04 20:00:00,22.2,0,76,0,1000.0,0,1002.8,0,1.9,0,��,0,7.6,0,��쐼,0,0,0,�Ȃ�,0,0.0,0,,,,,,,,
�k�C���X�y�[�X�|�[�g(�����),2023/08/04 21:00:00,23.6,0,84,0,1000.2,0,1002.9,0,0.8,0,���쐼,0,4.7,0,��쓌,0,0,0,����,0,0.0,0,,,,,,,,
�k�C���X�y�[�X�|�[�g(�����),2023/08/04 22:00:00,22.5,0,83,0,1000.1,0,1002.9,0,1.2,0,���쓌,0,2.3,0,�k��,0,0,0,����,0,0.0,0,,,,,,,,
�k�C���X�y�[�X�|�[�g(�����),2023/08/04 23:00:00,21.5,0,90,0,1000.0,0,1002.8,0,0.6,0,�k�k��,0,2.2,0,�k�k��,0,0,0,�Ȃ�,0,0.0,0,,,,,,,,
�k�C���X�y�[�X�|�[�g(�����),2023/08/05 00:00:00,22.2,0,98,0,1000.4,0,1003.2,0,2.6,0,�k��,0,5.0,0,���k��,0,0,0,����,0,0.0,0,,,,,,,,
�k�C���X�y�[�X�|�[�g(�����),2023/08/05 01:00:00,22.6,0,100,0,1000.2,0,1003.0,0,2.1,0,�k�k��,0,4.2,3,�k�k��,3,0,3,����,0,0.0,3,,,,,,,,
�k�C���X�y�[�X�|�[�g(�����),2023/08/05 02:00:00,22.2,0,96,0,1000.7,0,1003.5,0,3.4,0,�k��,0,7.4,0,�k�k��,0,0,0,�Ȃ�,0,0.0,0,,,,,,,,
�k�C���X�y�[�X�|�[�g(�����),2023/08/05 03:00:00,20.6,0,91,0,1000.9,0,1003.7,0,2.5,0,�k��,0,8.4,0,�k�k��,0,0,0,�Ȃ�,0,0.0,0,,,,,,,,
�k�C���X�y�[�X�|�[�g(�����),2023/08/05 04:00:00,20.6,0,96,0,1001.4,0,1004.2,0,2.4,0,�k��,0,5.9,0,�k�k��,0,0,0,�Ȃ�,0,0.0,0,,,,,,,,
�k�C���X�y�[�X�|�[�g(�����),2023/08/05 05:00:00,19.8,0,97,0,1001.9,0,1004.7,0,1.7,0,�k�k��,0,4.7,0,�k��,0,0,0,�Ȃ�,0,0.0,0,,,,,,,,
�k�C���X�y�[�X�|�[�g(�����),2023/08/05 06:00:00,19.1,0,100,0,1002.4,0,1005.2,0,1.3,0,���k��,0,2.7,0,�k�k��,0,5,0,����,0,0.0,0,,,,,,,,
�k�C���X�y�[�X�|�[�g(�����),2023/08/05 07:00:00,18.1,0,100,0,1002.8,0,1005.6,0,3.1,0,��,0,4.5,0,��,0,46,0,����,0,0.0,0,,,,,,,,
�k�C���X�y�[�X�|�[�g(�����),2023/08/05 08:00:00,17.8,0,100,0,1003.1,0,1005.9,0,1.7,0,���쓌,0,3.8,0,��,0,100,0,����,0,0.0,0,,,,,,,,
�k�C���X�y�[�X�|�[�g(�����),2023/08/05 09:00:00,17.8,0,100,0,1003.4,0,1006.2,0,1.5,0,���쓌,0,3.1,0,���쓌,0,109,0,����,0,0.0,0,,,,,,,,
�k�C���X�y�[�X�|�[�g(�����),2023/08/05 10:00:00,17.5,0,100,0,1003.2,0,1006.0,0,2.2,0,���쓌,0,3.6,0,���쓌,0,187,0,�Ȃ�,0,0.0,0,,,,,,,,
�k�C���X�y�[�X�|�[�g(�����),2023/08/05 11:00:00,17.3,0,100,0,1003.3,0,1006.1,0,1.8,0,�쓌,0,4.1,0,��,0,213,0,����,0,0.0,0,,,,,,,,
�k�C���X�y�[�X�|�[�g(�����),2023/08/05 12:00:00,17.4,0,100,0,1003.1,0,1005.9,0,2.2,0,���k��,0,4.5,0,��,0,254,0,�Ȃ�,0,0.0,0,,,,,,,,
�k�C���X�y�[�X�|�[�g(�����),2023/08/05 13:00:00,17.2,0,100,0,1002.5,0,1005.3,0,1.7,0,��,0,4.0,0,��,0,112,0,����,0,1.0,0,,,,,,,,
�k�C���X�y�[�X�|�[�g(�����),2023/08/05 14:00:00,17.2,0,99,0,1002.4,0,1005.2,0,2.1,0,��,0,3.3,0,��,0,190,0,�Ȃ�,0,0.5,0,,,,,,,,
�k�C���X�y�[�X�|�[�g(�����),2023/08/05 15:00:00,17.1,0,100,0,1002.5,0,1005.3,0,1.6,0,��,0,3.3,0,��,0,185,0,�Ȃ�,0,0.0,0,,,,,,,,
�k�C���X�y�[�X�|�[�g(�����),2023/08/05 16:00:00,16.7,0,100,0,1002.7,0,1005.5,0,1.2,0,�k�k��,0,4.9,0,��,0,92,0,�Ȃ�,0,0.0,0,,,,,,,,
�k�C���X�y�[�X�|�[�g(�����),2023/08/05 17:00:00,16.3,0,100,0,1002.7,0,1005.5,0,1.6,0,��,0,3.5,0,���k��,0,52,0,����,0,0.0,0,,,,,,,,
�k�C���X�y�[�X�|�[�g(�����),2023/08/05 18:00:00,16.3,0,100,0,1002.5,0,1005.3,0,1.2,0,���쓌,0,2.9,0,��,0,31,0,����,0,0.0,0,,,,,,,,
�k�C���X�y�[�X�|�[�g(�����),2023/08/05 19:00:00,16.2,0,100,0,1002.8,0,1005.6,0,0.5,0,��,0,2.8,0,��,0,1,0,����,0,0.0,0,,,,,,,,
�k�C���X�y�[�X�|�[�g(�����),2023/08/05 20:00:00,16.3,0,100,0,1003.4,0,1006.2,0,1.0,0,���쓌,0,1.9,0,���쓌,0,0,0,����,0,0.0,0,,,,,,,,
�k�C���X�y�[�X�|�[�g(�����),2023/08/05 21:00:00,16.3,0,100,0,1003.0,0,1005.8,0,0.3,0,�쓌,0,1.6,0,�쓌,0,0,0,����,0,0.5,0,,,,,,,,
�k�C���X�y�[�X�|�[�g(�����),2023/08/05 22:00:00,16.1,0,100,0,1002.9,0,1005.7,0,1.4,0,�k��,0,2.5,0,�k�k��,0,0,0,����,0,0.0,0,,,,,,,,
�k�C���X�y�[�X�|�[�g(�����),2023/08/05 23:00:00,15.7,0,100,0,1002.1,0,1004.9,0,1.6,0,���k��,0,3.5,0,��,0,0,0,����,0,0.0,0,,,,,,,,
�k�C���X�y�[�X�|�[�g(�����),2023/08/06 00:00:00,15.5,0,100,0,1001.9,0,1004.7,0,2.3,0,���k��,0,4.1,0,���k��,0,0,0,����,0,0.0,0,,,,,,,,
�k�C���X�y�[�X�|�[�g(�����),2023/08/06 01:00:00,15.6,0,100,0,1001.8,0,1004.6,0,1.6,0,���k��,0,3.6,0,��,0,0,0,����,0,0.0,0,,,,,,,,
�k�C���X�y�[�X�|�[�g(�����),2023/08/06 02:00:00,15.6,0,100,0,1001.2,0,1004.0,0,1.1,0,���k��,0,2.5,0,��,0,0,0,����,0,0.0,0,,,,,,,,
�k�C���X�y�[�X�|�[�g(�����),2023/08/06 03:00:00,15.4,0,100,0,1000.6,0,1003.4,0,1.1,0,���k��,0,2.8,0,���k��,0,0,0,����,0,0.0,0,,,,,,,,
�k�C���X�y�[�X�|�[�g(�����),2023/08/06 04:00:00,15.7,0,100,0,1000.5,0,1003.3,0,0.4,0,�k�k��,0,1.9,0,���k��,0,0,0,����,0,0.0,0,,,,,,,,
�k�C���X�y�[�X�|�[�g(�����),2023/08/06 05:00:00,15.8,0,100,0,1001.2,0,1004.0,0,1.4,0,��,0,2.4,0,�k�k��,0,0,0,����,0,0.0,0,,,,,,,,
�k�C���X�y�[�X�|�[�g(�����),2023/08/06 06:00:00,16.0,0,100,0,1001.6,0,1004.4,0,1.4,0,��,0,2.4,0,��,0,32,0,����,0,0.0,0,,,,,,,,
�k�C���X�y�[�X�|�[�g(�����),2023/08/06 07:00:00,15.9,0,100,0,1001.3,0,1004.1,0,1.2,0,��,0,2.3,0,���k��,0,77,0,�Ȃ�,0,0.0,0,,,,,,,,
�k�C���X�y�[�X�|�[�g(�����),2023/08/06 08:00:00,17.0,0,100,0,1001.4,0,1004.2,0,1.1,0,�k��,0,2.4,0,���k��,0,218,0,����,0,0.0,0,,,,,,,,
�k�C���X�y�[�X�|�[�g(�����),2023/08/06 09:00:00,16.5,0,100,0,1001.3,0,1004.1,0,2.3,0,���쓌,0,3.8,0,���쓌,0,343,0,�Ȃ�,0,0.0,0,,,,,,,,
�k�C���X�y�[�X�|�[�g(�����),2023/08/06 10:00:00,17.3,0,100,0,1001.5,0,1004.3,0,2.4,0,���쓌,0,4.6,0,���쓌,0,649,0,�Ȃ�,0,0.0,0,,,,,,,,
�k�C���X�y�[�X�|�[�g(�����),2023/08/06 11:00:00,17.2,0,100,0,1001.4,0,1004.2,0,2.6,0,���쓌,0,4.8,0,���쓌,0,628,0,�Ȃ�,0,0.0,0,,,,,,,,
�k�C���X�y�[�X�|�[�g(�����),2023/08/06 12:00:00,17.1,0,96,0,1001.1,0,1003.9,0,3.4,0,��,0,4.7,0,��,0,566,0,�Ȃ�,0,0.0,0,,,,,,,,
�k�C���X�y�[�X�|�[�g(�����),2023/08/06 13:00:00,17.7,0,98,0,1001.4,0,1004.2,0,3.2,0,���쓌,0,5.1,0,���쓌,0,362,0,�Ȃ�,0,0.0,0,,,,,,,,
�k�C���X�y�[�X�|�[�g(�����),2023/08/06 14:00:00,18.7,0,92,0,1001.8,0,1004.6,0,2.8,0,��,0,4.7,0,���k��,0,758,0,�Ȃ�,0,0.0,0,,,,,,,,
�k�C���X�y�[�X�|�[�g(�����),2023/08/06 15:00:00,17.8,0,96,0,1001.9,0,1004.7,0,2.7,0,��,0,5.0,0,��,0,473,0,�Ȃ�,0,0.0,0,,,,,,,,
�k�C���X�y�[�X�|�[�g(�����),2023/08/06 16:00:00,17.9,0,100,0,1002.4,0,1005.2,0,1.9,0,��,0,4.0,0,���쓌,0,129,0,�Ȃ�,0,0.0,0,,,,,,,,
�k�C���X�y�[�X�|�[�g(�����),2023/08/06 17:00:00,17.8,0,100,0,1002.5,0,1005.3,0,1.2,0,���k��,0,2.8,0,��,0,53,0,�Ȃ�,0,0.0,0,,,,,,,,
�k�C���X�y�[�X�|�[�g(�����),2023/08/06 18:00:00,17.8,0,100,0,1003.4,0,1006.2,0,0.9,0,�쓌,0,2.6,0,���쓌,0,22,0,����,0,0.0,0,,,,,,,,
�k�C���X�y�[�X�|�[�g(�����),2023/08/06 19:00:00,17.3,0,100,0,1004.1,0,1006.9,0,1.1,0,��쓌,0,2.6,0,���쓌,0,0,0,�Ȃ�,0,0.0,0,,,,,,,,
�k�C���X�y�[�X�|�[�g(�����),2023/08/06 20:00:00,17.2,0,100,0,1005.0,0,1007.8,0,1.2,0,���쓌,0,2.1,0,���쓌,0,0,0,�Ȃ�,0,0.0,0,,,,,,,,
�k�C���X�y�[�X�|�[�g(�����),2023/08/06 21:00:00,17.3,0,100,0,1004.6,0,1007.4,0,0.8,0,�쓌,0,1.7,0,��,0,0,0,�Ȃ�,0,0.5,0,,,,,,,,
�k�C���X�y�[�X�|�[�g(�����),2023/08/06 22:00:00,17.2,0,100,0,1004.8,0,1007.6,0,0.6,0,��,0,1.7,0,���쓌,0,0,0,�Ȃ�,0,0.0,0,,,,,,,,
�k�C���X�y�[�X�|�[�g(�����),2023/08/06 23:00:00,17.2,0,100,0,1005.1,0,1007.9,0,0.5,0,�k��,0,1.5,0,�k�k��,0,0,0,�Ȃ�,0,0.0,0,,,,,,,,
�k�C���X�y�[�X�|�[�g(�����),2023/08/07 00:00:00,17.3,0,100,0,1005.4,0,1008.2,0,1.3,0,�k��,0,1.8,0,�k��,0,0,0,�Ȃ�,0,0.0,0,,,,,,,,
�k�C���X�y�[�X�|�[�g(�����),2023/08/07 01:00:00,17.3,0,100,0,1005.1,0,1007.9,0,0.5,0,�k��,0,2.1,0,�k�k��,0,0,0,�Ȃ�,0,0.0,0,,,,,,,,
�k�C���X�y�[�X�|�[�g(�����),2023/08/07 02:00:00,17.3,0,100,0,1005.2,0,1008.0,0,0.4,0,�k�k��,0,1.1,0,�k�k��,0,0,0,�Ȃ�,0,0.0,0,,,,,,,,
�k�C���X�y�[�X�|�[�g(�����),2023/08/07 03:00:00,16.9,0,100,0,1005.3,0,1008.1,0,1.3,0,���k��,0,2.9,0,��,0,0,0,�Ȃ�,0,0.0,0,,,,,,,,
�k�C���X�y�[�X�|�[�g(�����),2023/08/07 04:00:00,16.7,0,100,0,1005.7,0,1008.5,0,1.3,0,�k��,0,4.2,0,�k�k��,0,0,0,�Ȃ�,0,0.0,0,,,,,,,,
�k�C���X�y�[�X�|�[�g(�����),2023/08/07 05:00:00,16.9,0,100,0,1006.4,0,1009.2,0,0.9,0,�k�k��,0,2.5,0,�k��,0,0,0,����,0,0.0,0,,,,,,,,
�k�C���X�y�[�X�|�[�g(�����),2023/08/07 06:00:00,17.1,0,100,0,1006.8,0,1009.6,0,1.2,0,�k��,0,2.5,0,�k��,0,26,0,����,0,0.0,0,,,,,,,,
�k�C���X�y�[�X�|�[�g(�����),2023/08/07 07:00:00,17.5,0,100,0,1007.4,0,1010.2,0,1.2,0,�k��,0,2.6,0,���k��,0,77,0,����,0,0.0,0,,,,,,,,
�k�C���X�y�[�X�|�[�g(�����),2023/08/07 08:00:00,17.4,0,100,0,1007.8,0,1010.6,0,1.8,0,�k�k��,0,4.3,0,��,0,111,0,�Ȃ�,0,0.0,0,,,,,,,,
�k�C���X�y�[�X�|�[�g(�����),2023/08/07 09:00:00,17.6,0,98,0,1008.2,0,1011.0,0,2.3,0,�k��,0,5.3,0,�k�k��,0,172,0,�Ȃ�,0,0.0,0,,,,,,,,
�k�C���X�y�[�X�|�[�g(�����),2023/08/07 10:00:00,16.7,0,100,0,1008.7,0,1011.5,0,1.8,0,�k��,0,4.7,0,��,0,105,0,�Ȃ�,0,12.5,0,,,,,,,,
�k�C���X�y�[�X�|�[�g(�����),2023/08/07 11:00:00,17.1,0,100,0,1008.9,0,1011.7,0,1.7,0,�k��,0,5.0,0,���k��,0,130,0,����,0,2.5,0,,,,,,,,
�k�C���X�y�[�X�|�[�g(�����),2023/08/07 12:00:00,17.1,0,100,0,1009.2,0,1012.0,0,1.9,0,���k��,0,5.4,0,�k��,0,161,0,�Ȃ�,0,0.0,0,,,,,,,,
�k�C���X�y�[�X�|�[�g(�����),2023/08/07 13:00:00,17.4,0,100,0,1009.3,0,1012.1,0,1.5,0,���k��,0,4.1,0,���k��,0,146,0,����,0,0.0,0,,,,,,,,
�k�C���X�y�[�X�|�[�g(�����),2023/08/07 14:00:00,17.8,0,100,0,1009.2,0,1012.0,0,1.4,0,�k�k��,0,3.0,0,�k��,0,116,0,����,0,5.5,0,,,,,,,,
�k�C���X�y�[�X�|�[�g(�����),2023/08/07 15:00:00,18.4,0,100,0,1009.0,0,1011.8,0,1.8,0,�k��,0,4.1,0,�k��,0,240,0,�Ȃ�,0,0.5,0,,,,,,,,
�k�C���X�y�[�X�|�[�g(�����),2023/08/07 16:00:00,17.9,0,100,0,1009.3,0,1012.1,0,2.1,0,��,0,3.4,0,��,0,144,0,�Ȃ�,0,0.0,0,,,,,,,,
�k�C���X�y�[�X�|�[�g(�����),2023/08/07 17:00:00,17.0,0,100,0,1010.0,0,1012.8,0,1.7,0,��,0,3.8,0,���쓌,0,60,0,����,0,0.0,0,,,,,,,,
�k�C���X�y�[�X�|�[�g(�����),2023/08/07 18:00:00,16.6,0,100,0,1010.5,0,1013.3,0,1.0,0,�k��,0,2.1,0,���쓌,0,32,0,����,0,0.5,0,,,,,,,,
�k�C���X�y�[�X�|�[�g(�����),2023/08/07 19:00:00,16.5,0,100,0,1011.3,0,1014.2,0,0.6,0,�k��,0,1.4,0,�k��,0,0,0,����,0,0.0,0,,,,,,,,
�k�C���X�y�[�X�|�[�g(�����),2023/08/07 20:00:00,16.5,0,100,0,1011.9,0,1014.8,0,0.5,0,���k��,0,1.4,0,���k��,0,0,0,����,0,0.0,0,,,,,,,,
�k�C���X�y�[�X�|�[�g(�����),2023/08/07 21:00:00,16.4,0,100,0,1012.0,0,1014.9,0,0.6,0,�k��,0,1.3,0,�k�k��,0,0,0,����,0,0.0,0,,,,,,,,
�k�C���X�y�[�X�|�[�g(�����),2023/08/07 22:00:00,16.3,0,100,0,1012.1,0,1015.0,0,0.5,0,�k�k��,0,2.5,0,�k�k��,0,0,0,����,0,0.0,0,,,,,,,,
�k�C���X�y�[�X�|�[�g(�����),2023/08/07 23:00:00,16.2,0,100,0,1012.4,0,1015.3,0,1.4,0,�k��,0,3.0,0,�k��,0,0,0,����,0,0.0,0,,,,,,,,
�k�C���X�y�[�X�|�[�g(�����),2023/08/08 00:00:00,15.9,0,100,0,1012.4,0,1015.3,0,1.7,0,���k��,0,3.9,0,�k�k��,0,0,0,����,0,0.0,0,,,,,,,,
�k�C���X�y�[�X�|�[�g(�����),2023/08/08 01:00:00,15.9,0,100,0,1012.4,0,1015.3,0,1.7,0,�k��,0,5.0,0,�k�k��,0,0,0,�Ȃ�,0,0.0,0,,,,,,,,
�k�C���X�y�[�X�|�[�g(�����),2023/08/08 02:00:00,15.7,0,100,0,1012.2,0,1015.1,0,1.2,0,�k��,0,2.2,0,���k��,0,0,0,����,0,0.5,0,,,,,,,,
�k�C���X�y�[�X�|�[�g(�����),2023/08/08 03:00:00,15.7,0,100,0,1012.4,0,1015.3,0,1.5,0,�k�k��,0,3.7,0,�k�k��,0,0,0,�Ȃ�,0,0.0,0,,,,,,,,
�k�C���X�y�[�X�|�[�g(�����),2023/08/08 04:00:00,15.7,0,100,0,1012.5,0,1015.4,0,0.8,0,���k��,0,2.0,0,���k��,0,0,0,����,0,0.0,0,,,,,,,,
�k�C���X�y�[�X�|�[�g(�����),2023/08/08 05:00:00,15.7,0,100,0,1012.7,0,1015.6,0,1.9,0,�k��,0,3.0,0,�k��,0,2,0,�Ȃ�,0,0.5,0,,,,,,,,
�k�C���X�y�[�X�|�[�g(�����),2023/08/08 06:00:00,16.1,0,100,0,1012.9,0,1015.8,0,1.8,0,�k��,0,3.1,0,�k��,0,28,0,�Ȃ�,0,0.0,0,,,,,,,,
�k�C���X�y�[�X�|�[�g(�����),2023/08/08 07:00:00,16.3,0,100,0,1013.1,0,1016.0,0,1.3,0,�k��,0,2.6,0,���쐼,0,36,0,����,0,4.0,0,,,,,,,,
�k�C���X�y�[�X�|�[�g(�����),2023/08/08 08:00:00,17.0,0,100,0,1013.0,0,1015.9,0,1.3,0,���k��,0,3.2,0,�k��,0,108,0,����,0,0.5,0,,,,,,,,
�k�C���X�y�[�X�|�[�g(�����),2023/08/08 09:00:00,16.6,0,100,0,1013.0,0,1015.9,0,2.1,0,���k��,0,3.8,0,���k��,0,25,0,����,0,16.0,0,,,,,,,,
�k�C���X�y�[�X�|�[�g(�����),2023/08/08 10:00:00,16.9,0,100,0,1012.8,0,1015.7,0,0.6,0,�k�k��,0,3.3,0,�k��,0,27,0,����,0,6.0,0,,,,,,,,
�k�C���X�y�[�X�|�[�g(�����),2023/08/08 11:00:00,17.7,0,100,0,1012.8,0,1015.6,0,2.3,0,�k�k��,0,3.5,0,�k�k��,0,148,0,�Ȃ�,0,1.5,0,,,,,,,,
�k�C���X�y�[�X�|�[�g(�����),2023/08/08 12:00:00,18.8,0,99,0,1013.0,0,1015.8,0,1.5,0,�k��,0,4.1,0,�k�k��,0,306,0,�Ȃ�,0,0.0,0,,,,,,,,
�k�C���X�y�[�X�|�[�g(�����),2023/08/08 13:00:00,18.8,0,93,0,1012.5,0,1015.3,0,3.5,0,��,0,4.7,0,��,0,490,0,�Ȃ�,0,0.0,0,,,,,,,,